Regional Weather Roundup
Issued by NWS

Home | Current Version | Previous Version | Graphics & Text | Print | Product List | Glossary On
Versions: 1 2 3 4 5 6 7 8 9 10 11 12 13 14 15 16 17 18 19 20 21 22 23 24 25 26 27 28 29 30 31 32 33 34 35 36 37 38 39 40 41 42 43 44 45 46 47 48 49 50
000
ASUS43 KOAX 270202
RWRNE

WEATHER ROUNDUP FOR NEBRASKA
NATIONAL WEATHER SERVICE OMAHA NE
900 PM CDT TUE MAY 26 2015

NOTES: SATELLITE DATA IS BEING USED TO AUGMENT CLOUD COVER ABOVE
       12000 FEET.
       "FAIR" INDICATES FEW OR NO CLOUDS BELOW 12,000 FEET WITH NO
       SIGNIFICANT WEATHER AND/OR OBSTRUCTIONS TO VISIBILITY.

  * THESE STATIONS DO NOT REPORT WEATHER SUCH AS RAIN...SNOW OR FOG.

NEZ001>004-019>022-054>056-270300-
NEBRASKA PANHANDLE

CITY           SKY/WX    TMP DP  RH WIND       PRES   REMARKS
SCOTTSBLUFF    PTCLDY    64  52  64 SE8       29.99R
ALLIANCE       MOCLDY    60  51  72 SE7       29.98S
CHADRON        PTCLDY    61  52  72 S7        29.96R
SIDNEY         PTCLDY    59  52  77 SE8       30.02F
$$

NEZ057>060-069>072-079>082-270300-
SOUTHWEST NEBRASKA

CITY           SKY/WX    TMP DP  RH WIND       PRES   REMARKS
NORTH PLATTE   CLEAR     63  51  65 S3        30.00R
IMPERIAL       CLEAR     62  51  67 E7        30.01R
MCCOOK         CLEAR     64  49  57 E6        29.99R
$$

NEZ005>010-023>029-035>040-094-270300-
NORTH CENTRAL NEBRASKA

CITY           SKY/WX    TMP DP  RH WIND       PRES   REMARKS
VALENTINE      CLEAR     67  48  50 W3        29.95R
AINSWORTH      PTCLDY    68  49  51 CALM      29.96R
BROKEN BOW     CLEAR     64  56  75 S3        29.97R
ORD            MOCLDY    60  49  66 W6        29.93S
$$

NEZ041-046>049-061>064-073>077-083>087-270300-
SOUTH CENTRAL NEBRASKA

CITY           SKY/WX    TMP DP  RH WIND       PRES   REMARKS
GRAND ISLAND   PTCLDY    62  50  64 W6        29.95R
HASTINGS       MOCLDY    64  51  62 NW5       29.95S
KEARNEY *      CLEAR     66  46  48 NW5       29.97S
$$

NEZ011>018-030>034-042>045-270300-
NORTHEAST NEBRASKA

CITY           SKY/WX    TMP DP  RH WIND       PRES   REMARKS
NORFOLK        PTCLDY    62  52  69 W3        29.88S
COLUMBUS *       N/A    N/A N/A N/A MISG        N/A
TEKAMAH        CLEAR     63  56  78 NE6       29.86R
$$

NEZ050>053-065>068-078-088>093-270300-
SOUTHEAST NEBRASKA

CITY           SKY/WX    TMP DP  RH WIND       PRES   REMARKS
LINCOLN        PTCLDY    67  54  63 W3        29.90R
OMAHA EPPLEY   MOCLDY    66  56  70 W5        29.86R
FALLS CITY     CLEAR     66  59  78 NW5       29.89R
NEBRASKA CITY  CLEAR     63  55  77 W6        29.89R
$$

NEZ044-045-051>053-067-270300-
OMAHA AREA

CITY           SKY/WX    TMP DP  RH WIND       PRES   REMARKS
OMAHA EPPLEY   MOCLDY    66  56  70 W5        29.86R
OFFUTT AFB     CLEAR     65  56  71 SW6       29.86R
WAHOO          FAIR      64  56  73 W5        29.88R
$$



USA.gov is the U.S. government's official web portal to all federal, state and local government web resources and services.